Miscellaneous Local Product
Issued by NWS North Platte, NE

Home | Current Version | Previous Version | Graphics & Text | Print | Product List | Glossary On
Versions: 1 2 3 4 5 6 7 8 9 10 11 12 13 14 15 16 17 18 19 20 21 22 23 24 25 26 27 28 29 30 31 32 33 34 35 36 37 38 39 40 41 42 43 44 45 46 47 48 49 50
000
AXUS43 KLBF 030210
MISLBF


WESTERN AND NORTH CENTRAL NEBRASKA HOURLY WEATHER ROUNDUP
NATIONAL WEATHER SERVICE NORTH PLATTE NE
900 PM CDT WED SEP 02 2015

NOTE: "FAIR" INDICATES FEW OR NO CLOUDS BELOW 12,000 FEET WITH NO
SIGNIFICANT WEATHER AND/OR OBSTRUCTIONS TO VISIBILITY.

NOTE: STATIONS NOT REPORTING VARIABLES SUCH AS SKY/WEATHER OR
PRESSURE ARE PROVIDED BY THE NEBRASKA DEPARTMENT OF
ROADS...RAWS...AND APRS NETWORKS...AND ARE NOT UNDER
NATIONAL WEATHER SERVICE QUALITY CONTROL.

...OBSERVATIONS IN AND NEAR THE EASTERN PANHANDLE OF NEBRASKA...

CITY           SKY/WX    TMP DP  RH WIND       PRES   REMARKS
PINE RIDGE     CLEAR     76  46  34 SE6       29.82S
CHADRON        CLEAR     77  46  33 S9        29.81R
ALLIANCE       CLEAR     73  48  41 S7        29.88S
SIDNEY         CLEAR     73  42  32 S7        29.94R
CRESCENT LAKE    N/A     79  48  33 S3          N/A
BIG SPRINGS      N/A     75  57  54 SE6         N/A
$$

...OBSERVATIONS IN NORTH CENTRAL NEBRASKA...

CITY           SKY/WX    TMP DP  RH WIND       PRES   REMARKS
VALENTINE      PTCLDY    86  52  30 S13       29.80R
THEDFORD       CLEAR     84  61  45 S10       29.86R
AINSWORTH      CLEAR     81  53  37 S8        29.83R
O`NEILL        CLEAR     80  71  73 SE8       29.83R
ORD            CLEAR     80  65  59 SE5       29.83R
BROKEN BOW     CLEAR     73  67  81 CALM      29.86R
SPRINGVIEW       N/A     85  60  42 SW3         N/A
SARGENT          N/A     80  65  61 CALM        N/A
CHAMBERS         N/A     76  65  70 CALM        N/A
EWING            N/A     76  67  75 CALM        N/A
$$

...OBSERVATIONS IN SOUTHWEST NEBRASKA AND FAR NORTHEAST COLORADO...

CITY           SKY/WX    TMP DP  RH WIND       PRES   REMARKS
WRAY           CLOUDY    85  46  25 CALM      29.89R
HOLYOKE        FAIR      77  64  65 CALM      29.90R
IMPERIAL       PTCLDY    81  55  40 E8        29.86S
OGALLALA       CLEAR     80  56  43 E3        29.87R
NORTH PLATTE   CLEAR     72  65  78 E8        29.85R
MCCOOK         CLEAR     83  59  44 E7        29.82S
LEXINGTON      CLEAR     78  69  74 E5        29.84R
PAXTON           N/A     73  61  67 CALM        N/A
BRADY            N/A     76  68  76 CALM        N/A
CALLAWAY         N/A     71  65  82 SE3         N/A
$$

...OBSERVATIONS IN CENTRAL LINCOLN COUNTY AREA...

CITY           SKY/WX    TMP DP  RH WIND       PRES   REMARKS
N.P. AIRPORT   CLEAR     72  65  78 E8        29.85R
N.P. DOWNTOWN    N/A     83  65  54 CALM        N/A
N.P. SOUTHEAST   N/A     80  65  61 CALM        N/A
N.P. HILLCREST   N/A     80  66  61 E10         N/A
$$

...SOME OBSERVATIONS FROM AROUND THE REGION...

CITY           SKY/WX    TMP DP  RH WIND       PRES   REMARKS
DENVER         MOCLDY    73  39  29 SE8       30.01S
LARAMIE        PTCLDY    68  40  35 SW14      30.16R
CHEYENNE       MOCLDY    78  40  25 SW6       30.06S
SCOTTSBLUFF    CLEAR     76  53  44 E5        29.88S
RAPID CITY     CLEAR     80  52  37 NE5       29.78R
PIERRE         CLEAR     83  68  60 E9        29.70R
WINNER         FAIR      86  56  35 SE12      29.75R
SIOUX FALLS    PTCLDY    78  71  79 S7        29.83R
OMAHA          MOCLDY    82  72  71 S10       29.85R
GRAND ISLAND   CLEAR     79  69  71 SE7       29.84R
KANSAS CITY    CLEAR     76  69  79 S9        29.94R
WICHITA        PTCLDY    83  64  52 SE12      29.90R
HAYS           CLEAR     90  55  31 S17       29.83R
LIBERAL        MOCLDY    82  52  34 S13       29.92R
GOODLAND       PTCLDY    77  50  38 SW6       29.88R
$$



USA.gov is the U.S. government's official web portal to all federal, state and local government web resources and services.